Location: Camp Roosevelt
(41.7914°N, 81.1673°W)
Time: 22:41:44
(UTC+00:00)

Aureole 3 Rocket - Pass Details

Date: 29 October 2020
Orbit: 399 x 1739 km, 82.5° (Epoch: 29 November)

Event Time Altitude Azimuth Distance (km) Brightness Sun altitude
Rises 23:24:05 0° 190° (S) 2,598 6.5 -12.1°
Reaches altitude 10° 23:25:55 10° 192° (SSW) 1,828 5.7 -12.4°
Maximum altitude 23:29:53 78° 279° (W) 695 3.4 -13.2°
Drops below altitude 10° 23:35:28 10° 6° (N) 2,545 6.1 -14.2°
Sets 23:38:24 0° 8° (N) 3,723 6.9 -14.7°
